Wind_Speed
72 72 71 71 71 70 68 67 65 65 66 66 67 68 69 69 70 71 72 72 72 73 73 73 74 75 76 76 77 78 79 80 81 82 83 83 84 85 85 86 87 88 88 89 90 91 92 92 93 94 95 95 96 97 97 97 97 98 99 99 100 101 103 104 105 104 103 103 103 101 99 97 93 90 89 87 86 86 85 85 85 86 86 86 87
72 72 71 70 68 67 66 66 67 68 69 69 70 70 70 70 71 71 71 72 72 73 73 74 75 75 76 77 78 79 80 81 82 83 84 85 85 86 87 87 88 88 89 90 90 91 91 92 92 93 94 94 95 96 96 97 97 97 97 98 98 99 101 102 104 105 103 103 103 104 104 103 100 96 95 93 91 90 89 87 87 87 87 87 87
72 71 70 67 64 64 67 69 70 70 71 71 71 71 71 71 71 71 72 72 73 74 74 75 75 76 77 78 79 80 81 82 83 84 85 85 86 87 87 88 88 89 90 90 91 92 92 92 93 93 93 94 94 95 96 96 97 97 97 98 98 98 98 100 101 103 103 103 103 103 105 106 104 101 100 99 97 95 93 91 90 90 89 89 89
70 68 66 65 65 67 69 70 71 71 72 72 72 72 72 72 73 73 73 74 74 75 75 76 76 77 78 79 80 81 82 83 84 85 86 86 87 87 88 89 89 90 91 92 92 93 93 94 94 94 94 95 95 95 96 97 98 98 98 98 99 99 99 99 100 101 101 100 100 101 103 105 106 104 103 103 102 100 98 96 94 93 93 92 91
67 65 65 65 67 69 70 71 72 72 72 73 73 73 74 74 74 75 75 75 76 76 77 78 78 79 80 81 82 83 84 85 86 87 87 88 88 88 89 89 90 90 91 92 92 93 93 93 93 93 94 94 94 95 95 96 96 97 97 98 98 99 99 99 100 101 101 100 98 97 99 102 104 104 104 105 104 103 102 100 99 97 96 95 94
66 66 66 67 68 69 70 71 72 73 74 74 74 75 75 75 76 76 76 77 78 78 79 80 81 81 82 83 84 85 86 87 87 88 88 88 88 89 89 89 89 89 89 89 89 89 90 90 90 90 90 90 91 91 92 92 93 93 94 95 96 96 97 97 98 99 100 101 99 97 96 98 100 101 102 104 105 104 103 103 103 101 100 98 97
67 67 67 68 69 70 71 72 73 74 75 75 75 75 76 76 76 77 78 79 79 80 81 82 82 83 84 85 86 87 87 88 88 88 88 88 88 87 87 87 86 85 85 84 84 84 84 84 84 84 84 85 85 86 87 87 88 88 89 90 91 92 93 93 94 96 97 99 99 99 98 98 99 100 100 102 103 102 103 104 104 103 102 102 100
67 68 68 68 69 71 72 73 74 74 75 75 75 76 76 77 77 78 79 80 81 82 83 83 84 85 85 86 87 87 87 88 87 87 87 86 85 84 83 82 81 80 79 78 78 78 78 78 78 78 79 79 80 81 82 83 83 84 84 85 87 87 88 89 90 91 93 94 95 96 97 98 99 100 101 101 102 102 102 104 105 103 103 104 103
68 68 68 69 70 71 72 73 74 74 75 75 76 76 77 78 78 79 80 82 83 83 84 85 85 86 86 86 86 86 86 85 85 84 83 82 81 79 78 77 76 75 74 73 73 73 73 73 74 74 75 76 76 77 78 79 80 80 80 81 82 82 83 84 84 85 86 87 88 89 91 93 95 97 99 101 102 103 103 104 104 103 103 104 104
68 69 69 70 71 72 72 73 74 75 76 76 77 78 78 79 80 81 82 82 84 84 85 85 85 85 85 85 84 83 82 81 80 79 78 77 76 74 73 72 71 70 70 70 70 70 71 71 72 72 73 74 75 75 75 76 77 77 77 77 77 78 78 78 79 80 80 81 81 82 83 85 86 89 93 96 99 102 103 105 105 104 103 104 103
69 69 70 71 72 72 72 73 75 76 77 78 79 79 80 80 81 82 83 83 84 85 84 84 84 83 82 81 79 77 76 75 74 73 72 71 71 70 69 68 68 68 69 69 69 69 70 71 71 72 72 73 73 73 73 74 74 74 74 74 74 74 74 74 74 75 75 75 75 75 76 77 78 80 83 87 90 94 98 102 105 105 105 105 104
69 70 70 71 72 73 74 75 76 77 78 79 80 80 81 81 82 83 83 83 83 83 82 81 80 78 76 75 73 71 70 70 69 68 68 67 68 67 67 67 67 68 68 69 69 70 70 70 71 71 72 72 72 72 72 72 72 71 71 71 71 71 72 72 72 72 72 72 70 70 71 72 72 73 75 78 80 83 88 93 98 102 104 106 105
70 71 72 73 73 74 75 76 77 78 79 80 81 81 81 82 82 82 82 81 80 78 77 75 73 72 70 69 67 66 66 66 66 65 65 66 66 66 67 67 68 68 69 69 70 71 71 71 71 71 72 72 72 72 71 71 70 69 68 68 68 69 70 70 71 71 70 70 68 67 68 69 68 68 70 73 75 76 79 82 87 93 98 102 103
71 72 73 74 75 76 76 77 78 79 80 81 81 81 81 81 80 79 78 76 74 73 71 69 67 66 65 64 64 63 64 64 65 65 65 66 66 67 67 68 68 69 70 71 72 72 73 73 72 72 72 72 72 72 71 70 69 68 67 66 66 67 68 68 69 69 69 69 67 66 66 67 67 66 68 71 73 73 74 75 78 82 87 91 96
73 74 74 75 76 77 78 78 79 80 80 81 80 80 79 78 76 74 73 71 69 67 65 63 62 62 62 62 62 62 63 64 65 65 66 67 68 68 69 70 70 71 72 73 74 74 74 74 74 74 73 73 73 73 72 71 69 68 67 66 66 66 66 67 67 68 67 67 66 65 64 65 65 65 66 70 71 71 71 72 74 76 77 79 83
74 75 76 77 78 78 79 79 80 80 80 79 78 77 75 74 72 70 67 65 64 62 61 60 60 61 61 62 62 63 64 66 66 67 68 69 70 70 71 71 72 73 74 74 75 75 75 75 75 75 74 74 74 74 73 72 71 69 67 66 66 65 64 64 65 65 65 64 63 62 61 61 61 61 62 65 67 67 67 68 70 71 72 72 73
76 77 78 78 79 79 79 79 79 78 77 76 74 72 70 69 67 64 63 61 60 60 60 60 61 62 62 63 64 64 65 67 68 69 70 71 72 72 73 73 73 74 74 74 75 74 74 75 75 74 74 74 74 73 73 72 70 69 67 66 65 63 62 61 62 62 62 61 60 58 57 57 57 56 57 59 61 61 62 62 63 65 67 67 68
77 78 78 78 79 78 78 77 76 75 73 71 69 67 65 63 62 60 60 59 59 60 61 61 62 63 64 65 65 66 67 68 69 70 71 72 73 73 73 73 73 73 73 73 73 72 72 72 72 71 71 71 70 70 69 69 67 66 65 63 62 60 58 58 58 58 58 57 56 55 54 55 55 54 54 54 55 56 56 55 57 58 59 60 63
78 78 78 78 78 77 76 74 72 69 67 65 63 61 60 59 59 59 59 59 60 61 62 62 63 65 66 66 67 67 68 69 70 70 71 72 72 73 72 72 72 71 71 70 70 69 69 68 67 67 67 66 66 65 65 64 63 62 61 59 57 55 55 55 55 55 54 54 54 54 54 55 55 54 53 53 53 54 53 52 53 53 54 54 56
78 78 77 76 75 73 70 68 65 63 61 59 58 58 57 58 58 59 59 60 61 62 63 64 64 65 66 67 67 68 68 68 69 69 70 71 71 71 71 70 70 69 68 67 66 65 65 64 62 62 62 61 61 61 60 59 58 57 56 55 53 52 52 52 52 52 52 52 53 54 54 54 54 53 53 53 54 54 53 53 53 53 53 52 53
75 74 73 71 68 65 62 60 58 57 56 56 56 56 57 58 59 59 60 61 62 63 64 64 65 65 66 66 67 67 67 67 67 68 69 69 69 69 69 68 68 67 65 64 63 62 61 60 58 57 57 57 57 56 55 53 53 52 51 51 51 50 51 51 50 51 52 52 52 52 52 52 53 52 52 53 55 56 56 55 55 55 56 55 55
70 69 66 63 60 58 56 54 54 54 54 55 55 56 57 58 59 60 61 61 62 63 63 64 64 64 64 65 65 66 66 67 67 67 67 67 67 67 66 66 65 65 63 62 61 60 58 57 56 55 55 54 53 52 51 49 48 48 47 47 48 49 50 50 49 50 51 51 51 50 50 50 51 52 52 53 54 57 58 58 59 59 60 60 60
64 61 58 56 54 52 52 52 52 53 54 55 56 57 58 59 59 60 60 61 61 62 62 62 62 62 63 64 65 65 66 66 65 65 65 65 64 64 63 63 63 64 63 62 60 59 57 56 55 54 53 51 50 48 47 46 46 45 45 45 45 46 47 47 48 49 49 49 48 48 48 48 49 50 52 52 53 56 57 59 60 62 63 63 64
57 55 53 52 51 50 51 52 53 53 54 55 56 56 57 58 58 59 59 60 60 61 61 62 62 62 63 63 64 64 65 64 64 63 63 62 61 61 61 61 62 62 62 62 61 59 57 55 54 53 51 48 46 45 44 44 44 45 45 45 44 44 44 45 46 46 46 46 46 46 46 47 48 49 51 52 53 55 56 57 59 60 62 63 64
53 52 51 51 50 51 51 52 53 53 53 54 54 55 55 56 56 57 58 59 59 60 60 61 62 62 62 62 62 63 63 62 62 61 61 61 60 60 60 60 61 62 62 62 61 59 57 54 53 51 48 45 43 43 43 43 45 45 46 47 47 47 46 46 47 47 46 46 46 45 45 47 47 48 50 51 53 55 57 57 58 59 61 62 62
52 52 51 50 50 50 50 51 51 51 51 52 52 53 54 55 56 56 57 58 58 59 59 60 61 61 61 61 61 61 61 61 61 61 61 60 60 60 60 61 61 62 62 61 60 58 56 53 51 49 46 43 43 43 44 45 46 47 48 49 50 50 49 49 49 49 48 47 47 47 47 48 49 49 51 52 53 56 58 58 59 60 62 64 63
51 50 49 48 48 48 48 49 49 50 50 51 52 53 53 54 55 56 56 57 58 58 59 59 59 60 60 60 60 60 60 60 61 61 61 61 61 60 60 61 61 61 60 59 57 55 52 50 47 45 43 43 44 46 46 47 47 48 48 49 50 50 50 49 49 49 48 48 48 48 49 50 51 52 53 54 55 57 59 59 59 61 64 66 66
49 48 47 47 47 47 48 48 48 49 50 51 51 52 52 53 54 54 55 56 57 57 58 58 58 59 59 59 59 59 60 60 62 62 62 62 61 61 60 61 60 58 56 54 52 50 47 44 42 41 41 43 44 45 46 46 47 48 49 49 49 49 49 49 48 48 48 48 48 49 50 51 52 53 55 56 56 58 60 60 61 62 64 66 66
47 47 47 47 47 47 48 48 48 49 50 51 51 52 52 53 53 54 55 56 56 56 57 57 57 58 58 59 60 60 60 61 62 63 62 62 61 61 61 60 58 55 52 50 48 44 41 39 38 39 40 42 42 43 44 45 46 48 49 49 49 48 48 48 48 48 48 49 49 50 51 52 53 54 55 56 56 58 59 60 61 62 63 65 65
47 47 47 48 48 48 49 49 50 51 51 52 53 53 53 54 54 54 54 54 55 55 55 56 57 58 58 59 60 61 61 61 62 63 62 61 61 61 60 58 55 52 49 46 42 38 36 35 36 38 39 40 40 41 42 44 45 46 47 48 48 47 47 47 47 48 48 49 50 51 51 51 51 52 53 54 54 55 56 58 59 61 62 63 64
46 46 47 48 49 50 51 51 52 53 54 54 55 55 55 55 56 55 55 54 54 54 55 55 57 58 59 60 61 61 62 62 62 62 61 60 60 59 58 56 53 49 44 39 35 34 34 34 36 37 38 38 39 40 42 43 44 45 45 46 47 47 46 47 47 48 48 49 50 49 49 49 49 49 50 51 51 52 54 57 59 61 63 63 64
47 47 48 50 51 52 53 54 54 55 56 56 57 57 57 57 57 58 57 56 55 55 55 56 58 59 60 61 62 62 61 61 61 61 60 59 58 57 55 53 49 43 37 33 31 32 33 34 35 36 36 37 39 40 42 43 43 44 44 44 45 46 47 47 48 48 48 48 48 46 45 45 45 46 47 49 51 52 55 58 60 62 63 63 62
49 50 51 52 53 54 55 56 56 57 58 58 59 59 59 58 58 59 59 59 58 57 57 58 59 60 61 62 62 61 60 60 60 59 58 57 56 54 52 48 41 34 30 30 30 31 33 34 34 35 36 37 38 40 41 41 42 42 43 44 45 46 47 47 48 47 47 46 43 42 41 42 44 45 46 49 52 54 56 58 59 60 60 59 58
51 53 54 55 56 56 57 58 59 59 60 60 61 61 61 61 60 60 60 60 60 60 60 61 62 63 63 62 61 59 58 58 58 58 56 55 53 51 46 40 33 29 28 29 31 32 32 33 34 34 35 36 37 38 39 40 41 42 43 44 45 46 46 47 46 45 43 41 39 39 40 41 43 45 47 50 53 55 55 55 55 55 55 54 53
53 55 56 57 58 59 59 60 60 61 61 62 62 62 62 62 62 61 61 61 61 61 62 63 64 65 64 62 58 56 55 56 56 56 54 52 50 45 38 33 30 30 30 30 31 31 32 32 33 34 35 36 36 37 38 39 40 42 43 44 45 45 45 45 44 42 39 37 37 38 39 41 44 47 49 51 53 53 52 51 50 50 50 48 47
55 57 58 59 60 61 61 62 62 63 63 63 64 64 64 64 63 63 62 62 61 62 62 64 66 67 66 61 56 53 53 54 54 53 51 48 43 37 32 30 30 31 31 31 32 32 32 32 33 33 34 35 36 37 38 39 40 42 43 43 44 43 42 41 39 37 36 35 36 37 39 41 44 47 49 50 51 50 48 46 46 45 44 42 41
58 59 60 61 62 62 63 63 64 64 64 65 65 65 65 65 65 64 63 63 62 63 63 64 66 68 65 59 54 52 52 52 51 50 48 43 36 30 28 29 30 30 31 32 32 32 32 32 32 33 35 36 36 37 38 39 39 40 41 41 41 41 40 38 35 34 34 34 35 37 38 41 44 47 49 49 47 45 43 42 42 40 37 36 36
61 62 62 63 63 64 65 65 66 66 66 66 66 67 66 66 66 65 65 64 63 64 64 65 66 67 62 56 52 51 51 50 49 47 42 36 30 28 28 29 30 30 30 31 31 31 31 32 33 34 35 36 37 37 37 37 38 38 38 39 39 39 37 35 33 32 32 33 34 35 37 40 44 47 48 46 43 40 38 38 38 35 32 32 33
64 64 64 65 65 65 66 66 67 67 67 67 67 67 67 67 67 67 66 65 64 65 65 65 66 66 60 53 50 49 49 49 48 43 36 31 28 27 28 29 29 30 30 31 31 31 31 32 34 35 36 36 36 36 36 36 36 36 36 36 37 37 36 34 32 31 32 32 32 34 37 40 43 46 45 42 39 36 34 34 33 31 29 29 30
65 66 67 67 67 67 67 67 67 67 67 67 67 67 67 67 67 67 66 65 65 66 65 65 66 64 57 50 47 46 46 47 45 39 32 30 29 29 29 29 30 30 31 31 31 31 32 33 34 35 35 35 35 35 34 34 34 34 34 34 35 35 34 32 31 31 31 31 32 33 36 39 42 42 40 37 35 33 32 30 28 27 26 27 28
67 68 68 69 69 69 68 68 67 67 67 67 67 67 68 68 67 67 66 65 65 66 65 65 65 62 54 47 44 43 43 44 41 35 30 29 30 29 29 29 30 30 31 31 31 31 32 33 33 34 34 34 33 33 33 33 33 32 32 32 33 33 32 30 29 30 30 30 31 32 35 38 39 37 33 30 29 29 28 27 26 24 24 24 25
68 69 69 69 69 69 68 67 67 67 67 68 68 69 69 69 68 67 66 65 65 65 64 64 64 59 51 45 43 43 41 39 36 32 29 29 29 29 29 30 30 30 30 30 31 31 32 33 33 33 33 32 32 32 32 32 32 31 30 29 30 31 31 29 27 27 27 28 30 31 34 35 34 30 27 26 26 26 27 26 25 24 23 22 22
69 69 69 69 69 68 68 67 67 68 69 69 70 71 71 70 68 67 66 66 66 65 64 64 62 55 48 44 43 41 39 35 31 29 28 28 28 28 29 29 30 30 30 30 30 30 31 32 33 33 32 31 31 31 31 31 31 30 29 28 28 29 29 27 26 25 25 26 28 30 32 33 30 26 24 24 26 27 27 26 25 24 23 21 20
69 70 70 70 69 69 69 69 70 71 72 72 73 73 72 71 69 67 66 66 65 65 64 63 58 51 46 44 42 39 35 31 29 28 27 27 27 28 28 29 30 29 29 29 29 29 30 31 32 32 32 32 31 31 31 31 31 30 29 27 27 28 28 27 25 23 23 24 26 27 29 30 27 24 22 23 25 27 27 25 23 22 22 21 20
70 70 70 71 71 72 72 73 74 75 75 75 75 74 73 71 69 68 67 66 65 65 63 59 52 47 45 43 40 36 32 28 27 27 26 26 26 27 28 29 29 29 29 29 29 29 30 30 31 31 32 32 32 31 31 31 31 31 30 28 27 27 27 27 25 23 21 21 23 25 26 27 26 23 21 21 24 26 26 24 21 20 20 20 19
71 72 73 74 75 76 76 77 78 78 78 77 76 75 73 71 69 68 67 66 65 63 59 53 48 45 43 41 37 32 29 27 26 26 25 25 26 27 27 28 28 28 28 28 28 29 30 30 30 31 31 31 31 31 31 30 31 30 30 29 28 27 27 27 27 26 24 22 22 23 24 25 25 23 20 19 21 24 24 23 22 21 20 19 19
74 75 77 78 79 80 80 80 80 80 79 78 76 74 72 70 69 68 67 65 62 58 53 49 45 43 40 37 33 30 27 26 25 25 24 25 25 26 26 27 26 27 27 28 28 29 30 30 30 30 30 30 31 31 30 30 30 30 30 29 28 28 27 27 27 27 26 25 24 23 22 23 23 23 21 19 20 22 24 23 23 22 22 21 20
79 80 81 82 82 82 81 81 80 79 77 75 73 72 70 68 67 65 63 60 57 53 49 46 43 40 37 34 30 28 26 25 25 24 24 24 25 25 25 25 25 26 27 28 28 29 29 30 30 30 29 30 30 30 30 30 30 29 29 29 28 28 27 27 26 26 26 26 25 24 22 21 21 22 21 20 19 21 23 23 22 21 21 20 20
82 82 82 82 81 80 79 78 77 75 74 72 70 68 66 64 62 60 58 55 52 49 46 42 39 36 33 30 27 26 25 25 24 23 24 24 24 25 24 24 25 26 27 28 29 29 30 30 30 30 29 29 30 30 30 29 29 29 29 28 28 27 27 27 26 26 25 25 25 24 23 22 21 21 21 20 19 20 21 22 22 21 19 18 17
82 81 80 79 78 77 76 75 73 72 70 68 66 63 61 59 57 54 52 49 46 44 41 38 35 33 30 27 26 25 24 24 23 23 23 24 24 24 24 24 25 26 27 28 29 29 30 30 30 30 29 29 29 30 30 29 29 28 28 27 27 27 26 26 26 25 25 25 24 24 24 23 22 21 20 19 19 19 20 20 20 20 18 16 15
78 77 75 75 74 73 72 71 69 67 65 63 60 58 55 52 50 48 45 43 40 38 36 33 31 29 27 25 24 24 23 23 22 23 24 24 24 24 25 25 26 27 28 29 29 29 30 30 30 30 29 29 29 29 30 29 29 28 27 27 27 26 26 25 25 25 24 24 24 23 23 23 22 21 20 19 19 19 19 19 19 19 18 16 14
Wind_Direction
286 286 286 285 285 285 284 284 284 284 284 284 284 284 284 284 285 285 285 286 286 286 286 286 286 286 286 286 286 286 286 286 286 286 286 285 285 285 285 284 284 283 283 283 282 281 281 280 280 279 279 279 279 278 278 278 278 277 277 276 276 275 274 273 272 268 265 266 266 265 265 266 265 265 264 263 261 260 260 260 260 261 260 260 259
287 287 286 286 286 286 285 286 287 287 287 287 287 287 287 288 288 288 288 288 288 288 288 288 287 287 287 287 287 286 286 286 286 286 286 286 286 286 286 285 285 285 284 284 283 283 282 281 281 280 279 279 279 278 278 277 277 276 276 275 275 274 274 273 273 271 268 266 265 265 264 265 265 264 265 264 263 261 260 259 259 259 260 260 260
287 287 288 287 286 285 286 288 289 289 289 289 289 289 289 289 289 288 288 288 288 287 287 287 287 287 287 287 287 287 287 287 287 287 287 287 287 287 286 286 286 286 285 285 285 284 284 283 282 281 281 280 280 279 278 278 277 277 276 276 275 274 273 273 272 271 270 268 266 265 264 264 264 264 264 265 264 263 262 260 259 258 258 258 259
288 288 287 287 286 286 287 288 288 289 289 289 289 289 289 288 288 288 288 288 287 287 287 287 287 288 288 288 288 288 288 288 288 288 288 288 288 288 287 287 287 286 286 286 285 285 284 284 283 283 282 281 280 280 279 279 278 278 277 276 276 275 274 273 272 271 270 268 267 266 265 265 264 263 263 264 264 263 262 261 260 259 258 257 257
287 286 285 285 285 287 287 288 288 288 288 288 288 288 288 288 288 288 288 288 288 288 288 288 289 289 289 289 290 290 290 290 289 289 289 289 289 288 288 288 287 287 286 286 285 284 284 283 283 282 282 281 280 279 279 278 278 277 277 276 276 276 275 274 273 272 271 269 267 266 265 265 265 264 263 263 263 262 262 262 261 260 259 257 257
285 285 285 285 286 286 286 287 287 287 287 287 288 288 288 288 289 289 289 289 289 289 289 289 290 290 290 290 290 290 290 290 290 289 289 289 289 288 288 287 287 286 286 285 284 284 283 282 282 281 281 280 279 279 278 277 277 276 276 275 275 275 274 274 274 273 273 271 269 267 265 265 264 264 263 263 263 262 261 261 260 260 259 258 257
285 285 285 286 286 286 286 286 286 287 287 288 288 289 289 289 289 290 290 290 290 290 290 290 290 290 290 290 290 290 290 290 290 290 289 289 289 288 288 287 287 286 285 285 284 283 283 282 282 281 281 280 279 279 278 277 276 276 275 275 274 274 274 274 274 273 273 273 271 270 268 265 264 263 263 262 262 262 261 260 259 259 259 258 258
285 285 286 286 286 286 286 286 287 287 288 288 289 289 289 290 290 290 291 291 291 291 291 291 291 291 291 291 291 291 291 291 290 290 290 289 289 289 288 287 287 286 286 285 284 284 283 283 283 282 282 281 281 280 280 279 278 277 277 276 275 274 274 273 273 273 273 272 272 271 269 268 266 264 263 262 261 261 260 260 259 258 258 258 257
286 286 287 287 287 286 287 287 288 288 289 289 289 290 290 290 291 291 291 291 291 291 291 291 291 291 292 292 292 292 292 291 291 291 290 290 289 289 288 287 287 286 286 286 285 285 285 284 284 284 284 283 283 282 282 282 281 280 279 279 278 277 276 275 274 273 272 272 271 270 270 269 267 266 264 263 262 260 259 259 258 258 257 257 257
287 287 287 287 287 287 288 288 289 289 290 290 290 291 291 291 291 291 291 291 291 291 292 292 292 292 292 292 292 292 292 292 291 291 290 290 289 289 288 288 287 287 287 286 286 286 286 286 285 285 285 285 285 284 284 284 283 283 282 282 281 280 279 278 277 275 274 273 272 271 270 269 268 267 266 264 263 261 260 259 258 257 256 256 256
288 288 287 287 287 288 289 289 290 290 290 291 291 291 291 291 291 291 291 292 292 292 292 292 293 293 292 292 292 292 291 291 290 290 290 289 289 288 288 288 288 287 287 287 287 286 286 286 286 286 286 285 285 285 284 284 284 283 283 283 282 282 281 280 279 278 277 276 274 273 272 270 268 267 266 265 263 262 261 260 259 257 256 255 255
287 287 287 288 288 289 290 290 290 290 291 291 291 291 291 291 292 292 292 292 292 292 292 292 292 292 292 291 291 290 290 289 289 289 289 289 289 288 289 288 288 288 288 288 287 287 287 287 286 286 286 286 285 285 284 284 283 283 283 283 282 282 282 281 280 279 278 277 276 275 274 272 270 269 268 266 265 263 261 260 259 258 256 255 254
287 288 288 289 289 290 290 290 291 291 291 291 291 291 292 292 292 292 292 292 292 292 292 291 291 290 290 290 289 289 289 288 288 288 289 289 289 289 289 289 289 289 289 289 288 288 288 288 287 287 287 286 286 285 284 283 283 282 282 282 282 282 281 281 281 280 279 278 277 276 275 274 272 271 270 268 266 264 262 261 260 259 257 256 255
288 289 289 290 290 290 290 290 290 291 291 291 292 292 292 292 292 292 292 292 291 291 290 290 289 289 288 288 288 288 288 289 289 290 290 290 290 290 290 290 290 290 290 290 290 290 289 289 289 288 287 287 286 285 284 283 283 282 282 282 282 281 281 281 281 280 280 279 278 277 276 275 274 272 271 269 268 266 264 262 261 260 259 257 256
289 289 289 290 290 290 290 291 291 292 292 292 292 292 292 292 292 292 291 291 290 289 289 288 288 287 288 288 288 289 290 290 291 291 292 292 291 291 291 291 291 291 291 291 291 291 290 290 289 288 288 287 286 285 284 284 283 283 282 282 282 281 281 281 280 280 279 279 278 278 277 277 276 274 272 271 269 268 266 264 263 261 260 259 257
289 289 290 290 290 291 291 292 292 292 292 292 292 292 292 292 292 291 291 290 289 289 288 288 288 289 289 290 291 292 292 292 293 293 293 292 292 292 292 292 292 292 291 291 291 291 291 290 289 289 288 287 286 285 285 284 283 283 282 282 282 281 281 280 280 279 278 278 279 279 278 278 277 276 275 273 272 270 268 266 264 263 261 259 258
290 290 291 291 292 292 293 293 293 292 292 292 292 292 293 292 292 291 290 290 290 290 290 291 291 292 292 292 293 293 293 293 293 293 293 293 293 293 292 292 292 292 292 292 292 291 291 290 290 289 288 287 287 286 285 284 284 283 282 281 281 281 280 279 278 278 278 279 280 280 280 280 279 278 276 274 273 271 269 267 265 263 262 260 259
291 292 292 293 293 293 293 293 293 293 293 293 293 293 293 292 292 292 292 292 292 292 292 292 292 293 293 293 293 293 293 293 294 294 294 294 293 293 293 293 293 293 293 293 292 292 291 291 291 290 289 289 288 287 286 285 284 283 282 281 280 280 278 276 276 277 278 279 281 282 282 283 283 281 277 273 272 270 269 267 265 263 262 261 259
293 293 293 293 293 293 293 293 294 294 294 294 294 294 293 293 293 293 293 293 292 292 292 292 292 293 293 293 294 294 294 294 294 294 295 294 294 294 294 294 294 294 294 293 293 293 292 292 292 291 291 290 289 288 287 286 285 283 282 280 279 278 276 275 275 276 277 279 280 282 282 282 282 282 278 273 270 268 267 266 265 264 263 261 260
294 294 293 293 293 294 294 295 295 295 295 295 294 294 294 293 293 293 292 292 292 292 292 292 292 293 293 293 294 294 294 295 295 295 295 295 296 296 296 296 295 295 294 294 294 293 293 293 292 292 291 290 289 288 287 287 285 284 282 281 279 277 276 275 276 277 278 279 279 280 280 280 280 279 277 273 270 268 266 265 265 265 265 263 263
293 293 293 293 294 295 295 295 295 295 295 294 294 293 293 292 292 292 292 292 292 292 292 292 292 293 293 294 295 295 295 295 296 296 296 296 297 297 297 297 296 296 295 295 295 294 294 293 293 292 290 289 288 287 286 285 284 283 282 280 279 278 277 276 277 278 278 278 278 279 278 278 277 276 275 273 271 269 267 267 266 266 266 266 265
293 293 293 294 295 295 295 295 295 294 294 293 293 292 292 292 292 292 291 291 292 292 292 293 293 294 294 295 295 295 295 296 297 297 297 298 298 298 298 298 298 297 297 296 295 295 294 294 293 292 290 289 287 286 285 284 283 282 281 280 279 279 278 278 277 277 277 278 278 278 277 276 275 274 274 272 271 270 269 268 268 267 267 267 267
293 293 294 294 295 295 295 294 293 292 292 292 291 291 291 291 291 291 291 292 292 293 293 294 294 294 295 295 295 296 296 297 298 299 299 299 299 299 300 299 299 298 297 297 296 295 294 294 293 292 290 288 286 285 284 284 284 284 283 281 280 279 279 280 280 279 279 279 279 278 277 276 275 274 273 272 271 270 269 268 268 268 268 268 268
293 293 294 294 294 294 293 292 291 291 291 291 292 291 291 292 292 292 293 293 293 294 294 294 294 294 295 295 296 297 298 299 299 300 300 300 301 301 301 300 299 298 297 297 296 295 294 294 293 292 290 287 285 284 285 286 287 287 287 286 284 282 281 281 282 281 281 280 279 278 277 276 275 274 274 273 272 271 270 269 268 268 268 268 268
292 293 293 294 293 292 292 292 292 293 293 293 293 293 294 294 295 295 295 295 295 295 295 295 295 295 296 296 297 298 298 299 300 300 301 301 302 302 301 301 300 299 298 297 296 295 295 294 292 291 289 287 285 285 287 288 289 290 291 291 290 289 287 286 286 285 284 282 281 280 279 277 276 275 273 273 272 272 271 270 270 270 270 269 269
292 293 293 293 292 292 293 294 294 295 295 295 296 296 296 297 297 297 297 297 297 297 297 297 297 297 297 298 298 298 299 300 301 301 302 303 304 304 303 302 302 301 300 299 297 296 295 293 291 290 288 287 287 288 289 289 290 290 291 290 289 288 287 286 286 285 284 283 282 282 281 280 279 277 275 274 273 271 271 271 271 271 271 271 271
291 292 292 292 292 293 294 295 296 297 297 298 298 298 298 298 298 298 298 299 299 299 299 298 298 298 298 299 299 299 300 301 301 302 303 305 305 304 303 302 302 301 299 298 296 295 292 290 288 287 286 286 288 288 289 289 289 289 289 288 288 287 286 285 285 284 283 283 283 282 282 281 281 280 278 277 275 274 273 272 272 271 270 270 270
291 292 292 292 293 294 296 297 299 300 300 301 301 301 301 300 300 300 300 300 300 300 300 300 299 299 299 299 299 300 301 301 302 303 304 305 305 303 302 302 301 300 298 296 294 292 288 285 284 282 283 284 285 286 287 288 289 289 288 288 287 287 287 286 286 285 285 284 284 283 283 283 282 281 280 279 278 277 275 274 273 272 271 271 271
292 292 292 293 295 296 298 299 301 302 303 303 304 304 303 303 304 303 303 303 303 302 302 301 301 300 300 300 300 300 301 302 302 303 304 305 304 303 303 303 302 300 297 295 292 288 284 281 280 279 281 283 284 285 287 288 288 289 288 288 287 287 288 288 288 288 288 288 287 286 285 284 284 282 281 280 279 278 277 276 276 275 275 275 275
292 293 294 295 296 297 299 300 301 303 304 305 305 305 305 306 307 307 306 305 305 305 305 304 303 302 302 301 300 300 301 302 303 304 305 305 304 305 305 304 302 300 297 294 290 286 282 280 280 281 282 283 284 286 287 287 287 288 288 289 289 289 290 291 291 291 291 291 290 289 288 286 284 283 281 280 279 279 279 280 280 279 279 278 278
294 295 296 296 297 298 299 300 301 302 303 305 306 306 306 306 307 308 308 307 307 307 307 307 306 305 304 303 302 302 302 303 304 305 305 305 305 305 305 304 302 299 296 291 287 284 283 282 283 284 285 286 287 288 288 287 287 287 288 290 292 293 294 294 294 294 293 292 291 290 288 285 283 281 280 280 281 282 283 283 283 283 282 281 280
295 296 297 297 297 298 298 299 300 301 302 303 304 305 306 306 307 308 309 309 309 309 309 309 309 308 306 305 304 303 303 303 304 305 305 305 305 305 305 303 300 296 291 287 285 285 285 286 286 287 288 289 289 289 289 288 288 289 290 292 295 297 297 297 297 296 294 293 291 289 286 283 282 281 282 283 284 285 286 286 286 285 284 283 282
295 296 296 296 297 297 297 298 299 300 301 302 302 303 304 305 306 307 309 310 310 310 310 311 311 310 309 307 305 304 303 303 304 305 305 305 305 305 304 301 296 291 288 288 288 289 289 289 289 289 290 290 290 290 290 291 292 293 295 296 297 298 299 299 298 297 295 293 290 287 284 283 283 284 285 287 288 288 289 289 288 287 286 285 284
293 294 294 295 295 296 296 297 297 298 299 300 301 302 303 304 305 305 307 308 309 310 311 311 312 312 311 307 305 304 303 303 304 305 305 305 306 305 302 297 292 288 288 289 291 291 291 290 290 291 292 292 293 293 294 296 297 298 299 299 300 300 300 299 298 296 294 291 288 285 284 286 287 289 290 291 292 293 293 292 291 289 288 287 286
292 292 292 293 294 294 295 296 296 297 298 299 300 300 301 302 303 304 305 306 308 310 311 311 313 314 312 307 304 303 303 303 304 305 305 305 305 302 297 292 291 292 292 292 293 293 292 292 293 294 295 296 296 297 299 300 301 301 301 301 302 302 301 300 298 296 293 289 287 287 289 291 292 293 295 296 297 297 296 294 292 291 289 288 286
291 291 292 292 293 294 294 295 295 296 297 298 298 299 300 300 301 302 304 305 306 308 310 310 312 314 312 307 304 302 302 303 304 304 304 304 302 296 291 290 292 294 295 295 295 294 294 294 295 297 298 299 300 301 302 303 303 303 303 303 303 303 302 301 298 295 291 289 289 290 293 294 296 298 300 301 300 299 297 295 293 291 289 287 284
291 291 291 292 292 293 294 294 294 295 296 296 297 297 298 299 300 301 302 304 305 307 308 309 312 314 311 306 302 302 302 303 304 304 303 301 295 289 288 291 293 294 295 296 295 295 295 297 299 300 301 302 303 304 305 305 305 305 305 306 306 305 304 302 298 294 290 289 291 292 294 296 299 302 303 303 302 300 298 296 295 292 289 286 284
290 291 291 291 291 292 293 293 294 294 294 295 295 296 297 298 299 300 302 303 305 306 307 308 311 313 310 304 301 302 303 303 303 303 301 295 288 286 289 292 292 294 295 295 295 297 299 301 303 303 304 304 305 306 307 307 308 308 309 309 309 308 306 303 298 295 293 291 292 294 296 299 303 305 306 305 303 301 299 298 296 292 289 289 290
289 290 290 290 290 291 291 292 292 292 293 293 294 295 296 297 298 300 302 303 304 305 306 308 310 312 308 302 300 302 302 302 303 302 296 289 286 288 292 293 294 296 297 297 298 300 301 303 304 305 305 306 307 308 309 310 311 311 312 313 313 311 308 303 298 296 296 296 296 297 300 304 307 308 308 306 304 302 301 300 298 294 292 294 296
288 289 289 289 289 289 289 290 290 290 291 292 293 294 295 296 297 299 300 301 302 304 305 307 310 310 305 300 299 300 300 301 301 298 290 286 287 291 293 294 296 297 298 299 300 301 302 303 304 304 305 307 308 309 310 312 313 314 314 315 316 315 311 305 298 296 297 298 299 300 303 306 309 310 309 307 304 303 302 301 300 299 299 301 302
287 288 288 288 288 288 289 289 289 289 290 291 291 292 293 294 295 297 299 300 301 302 304 306 308 307 302 298 298 299 298 298 297 291 285 285 288 291 293 294 296 297 297 298 300 301 302 303 304 305 307 308 309 311 311 313 314 315 315 317 320 320 316 310 303 299 298 299 301 302 305 309 312 311 309 307 306 305 304 304 303 303 302 304 304
287 287 288 288 289 289 289 288 288 289 289 289 290 291 291 292 294 295 297 298 299 301 302 305 306 304 299 296 297 297 296 294 290 284 282 284 287 289 292 294 295 295 296 297 299 301 302 304 305 307 308 309 310 311 312 313 315 315 314 316 321 324 322 317 310 305 302 302 303 304 308 312 314 312 309 308 309 308 307 305 304 302 301 300 301
287 287 288 288 288 288 288 288 288 288 288 288 289 289 290 291 293 294 295 296 298 299 301 303 303 300 296 295 295 295 292 288 282 279 281 283 285 288 291 292 293 294 295 297 299 301 303 305 306 308 309 309 310 310 311 313 315 316 314 315 319 325 326 323 318 313 309 307 306 307 311 315 315 311 310 312 312 310 308 305 302 300 299 296 294
287 287 288 288 288 288 288 287 287 287 287 287 288 288 289 290 291 292 293 294 296 298 299 301 299 296 293 293 293 290 286 280 275 275 279 282 285 288 291 292 293 294 296 298 300 303 305 307 307 309 310 310 310 310 311 313 315 317 316 315 317 322 328 329 327 321 315 311 309 309 312 316 314 308 309 315 316 313 310 308 304 302 299 294 289
288 288 288 288 288 287 287 286 286 286 286 286 287 288 288 289 290 290 291 293 294 296 297 297 295 292 292 291 289 285 279 272 270 273 277 281 285 288 290 291 293 295 297 300 303 305 307 308 308 309 310 311 310 310 312 314 316 318 318 318 317 319 325 331 333 329 323 317 313 311 313 316 315 307 306 315 321 318 313 309 306 305 303 298 292
287 287 287 287 286 286 286 285 285 285 286 286 286 287 287 288 288 289 290 291 292 293 294 292 291 290 289 288 284 277 270 266 267 272 276 280 285 287 289 291 294 296 299 303 305 307 308 309 310 310 311 311 310 310 311 314 316 318 320 320 319 319 322 328 333 335 333 329 324 317 314 316 316 310 305 312 322 324 319 310 304 303 302 301 298
287 287 286 285 285 285 285 285 285 285 285 285 286 286 286 287 287 288 288 289 290 290 289 288 287 287 285 282 277 269 264 263 267 271 275 280 284 286 289 292 295 298 302 305 307 308 310 310 310 311 311 310 310 310 310 312 315 318 320 321 322 321 321 324 329 334 337 337 333 325 317 315 316 314 308 307 315 325 326 319 309 303 299 297 294
286 286 285 285 285 285 284 284 284 284 284 284 285 285 285 285 285 286 286 286 286 286 285 284 283 282 279 275 268 261 259 262 267 271 276 281 284 286 289 293 297 301 304 307 308 310 311 311 311 311 311 311 310 309 309 311 313 316 319 321 322 322 322 322 324 329 334 337 337 332 325 320 319 318 313 308 309 318 326 326 321 312 304 298 293
286 286 286 285 285 285 285 284 284 284 283 283 283 283 283 282 282 282 282 282 282 281 279 278 277 275 272 265 258 254 256 261 267 272 277 280 283 285 289 294 298 303 306 308 309 311 312 312 312 311 311 310 311 310 309 309 311 314 317 319 321 322 323 323 322 324 327 332 335 337 335 330 325 321 318 314 310 312 318 325 327 323 314 306 298
287 287 287 286 286 285 284 284 283 282 281 281 280 280 279 279 278 278 277 277 276 274 273 271 269 267 262 254 249 250 255 260 266 272 277 279 281 285 290 294 299 304 307 308 310 311 312 312 312 312 311 310 310 310 309 308 309 311 314 317 319 321 323 323 323 322 323 325 329 334 339 338 333 327 322 319 316 312 313 318 325 329 326 316 303
289 288 288 287 287 286 284 283 282 280 279 278 277 276 275 275 274 273 273 271 270 268 265 263 260 256 250 244 243 248 255 260 266 271 275 277 280 284 289 294 299 303 306 308 310 311 312 312 312 312 310 310 309 310 309 308 308 308 311 313 316 318 321 322 322 322 322 321 322 327 334 339 339 335 330 325 322 319 315 314 319 326 331 330 320
Height
5673 5671 5669 5667 5665 5663 5660 5658 5656 5655 5653 5652 5650 5648 5647 5645 5643 5640 5638 5636 5634 5632 5630 5629 5627 5625 5623 5621 5619 5616 5614 5612 5610 5608 5605 5603 5602 5600 5599 5597 5595 5593 5592 5589 5587 5586 5585 5584 5582 5581 5579 5578 5577 5575 5574 5573 5571 5571 5570 5569 5570 5567 5565 5565 5565 5574 5582 5580 5582 5588 5587 5586 5593 5597 5596 5599 5603 5603 5605 5607 5607 5608 5610 5611 5613
5664 5661 5659 5657 5655 5653 5651 5649 5647 5645 5643 5641 5640 5638 5636 5634 5632 5630 5628 5626 5624 5622 5620 5618 5616 5614 5612 5610 5608 5606 5603 5601 5598 5596 5594 5592 5590 5588 5586 5584 5582 5580 5578 5576 5573 5571 5570 5569 5568 5567 5565 5564 5563 5561 5560 5558 5556 5556 5555 5553 5554 5553 5550 5549 5549 5554 5563 5566 5567 5571 5571 5567 5574 5582 5580 5581 5588 5589 5590 5595 5596 5596 5598 5598 5600
5654 5652 5650 5648 5646 5644 5642 5640 5638 5636 5633 5631 5629 5628 5626 5624 5622 5620 5618 5616 5615 5612 5610 5608 5606 5604 5601 5599 5597 5595 5592 5590 5587 5585 5583 5580 5578 5576 5574 5572 5569 5567 5565 5562 5560 5557 5555 5554 5553 5552 5551 5550 5548 5546 5544 5543 5541 5540 5540 5538 5537 5538 5537 5534 5534 5535 5541 5548 5552 5555 5555 5552 5556 5565 5565 5563 5570 5573 5574 5580 5583 5583 5585 5585 5586
5644 5642 5641 5639 5637 5636 5634 5631 5629 5626 5624 5622 5620 5618 5617 5615 5613 5611 5609 5607 5605 5602 5600 5598 5595 5593 5591 5588 5586 5583 5580 5578 5575 5572 5571 5569 5567 5564 5562 5559 5557 5555 5552 5549 5547 5544 5542 5540 5539 5537 5536 5535 5534 5532 5530 5528 5526 5524 5524 5522 5520 5521 5521 5519 5518 5518 5520 5529 5537 5539 5539 5538 5539 5546 5549 5546 5550 5554 5556 5562 5566 5567 5570 5571 5572
5635 5634 5633 5631 5629 5627 5625 5622 5619 5617 5615 5613 5611 5609 5607 5605 5603 5601 5599 5596 5594 5591 5589 5587 5584 5581 5579 5576 5574 5571 5568 5565 5563 5560 5558 5556 5555 5552 5550 5548 5545 5542 5540 5537 5534 5532 5529 5528 5526 5524 5522 5521 5520 5518 5516 5514 5512 5510 5508 5507 5505 5504 5504 5503 5501 5501 5502 5508 5518 5523 5524 5524 5522 5527 5531 5529 5530 5536 5539 5543 5546 5547 5551 5556 5559
5626 5626 5625 5623 5621 5619 5616 5613 5610 5608 5605 5603 5601 5599 5597 5595 5593 5590 5588 5585 5582 5580 5577 5575 5572 5570 5567 5564 5562 5559 5556 5553 5551 5549 5547 5544 5542 5540 5538 5535 5533 5530 5527 5524 5522 5519 5517 5515 5513 5511 5508 5507 5506 5503 5502 5500 5497 5496 5494 5492 5491 5489 5489 5489 5486 5485 5486 5490 5497 5504 5508 5509 5507 5508 5513 5510 5509 5517 5522 5524 5526 5528 5532 5538 5543
5618 5617 5616 5615 5612 5609 5606 5603 5601 5598 5596 5593 5591 5589 5587 5585 5582 5579 5577 5574 5571 5568 5566 5563 5561 5558 5556 5553 5550 5547 5544 5541 5539 5536 5534 5532 5530 5528 5525 5523 5520 5518 5514 5512 5509 5506 5504 5502 5500 5498 5496 5493 5492 5489 5487 5485 5483 5482 5480 5477 5477 5475 5475 5475 5474 5471 5472 5473 5478 5484 5488 5491 5490 5491 5494 5492 5491 5498 5504 5503 5505 5512 5515 5518 5524
5610 5609 5607 5606 5603 5600 5597 5594 5591 5588 5586 5584 5581 5579 5577 5574 5572 5569 5565 5562 5559 5557 5554 5552 5549 5546 5543 5541 5538 5535 5531 5528 5526 5524 5522 5520 5517 5515 5513 5510 5508 5505 5502 5499 5496 5494 5492 5490 5488 5486 5483 5481 5478 5476 5473 5471 5469 5468 5466 5463 5463 5463 5462 5462 5461 5459 5458 5458 5462 5465 5467 5470 5472 5472 5474 5475 5475 5481 5484 5481 5485 5496 5500 5499 5504
5602 5600 5599 5597 5593 5590 5587 5584 5581 5578 5576 5573 5571 5569 5567 5564 5561 5558 5555 5551 5548 5545 5543 5540 5537 5534 5531 5528 5525 5522 5519 5515 5513 5511 5509 5507 5505 5503 5501 5498 5496 5493 5490 5487 5485 5483 5481 5479 5477 5474 5471 5468 5466 5463 5461 5457 5454 5453 5453 5451 5449 5449 5448 5448 5447 5445 5444 5445 5448 5450 5450 5453 5454 5452 5454 5457 5457 5460 5464 5462 5466 5477 5482 5480 5485
5592 5591 5589 5586 5583 5580 5578 5574 5571 5568 5566 5563 5561 5558 5556 5553 5551 5548 5544 5541 5537 5534 5531 5528 5525 5522 5519 5516 5513 5510 5506 5503 5500 5499 5496 5494 5493 5491 5489 5487 5484 5482 5480 5477 5475 5473 5470 5468 5466 5463 5460 5457 5454 5452 5449 5446 5442 5440 5440 5439 5437 5436 5435 5434 5433 5431 5430 5432 5435 5436 5436 5438 5438 5435 5435 5438 5437 5439 5445 5446 5447 5457 5463 5461 5468
5583 5581 5579 5576 5573 5571 5568 5565 5561 5558 5555 5553 5550 5548 5545 5543 5540 5537 5533 5530 5526 5523 5520 5517 5514 5510 5507 5504 5502 5499 5495 5492 5490 5488 5486 5483 5482 5480 5479 5477 5474 5472 5470 5468 5465 5463 5461 5458 5456 5453 5450 5446 5443 5441 5439 5435 5433 5431 5430 5428 5425 5423 5421 5421 5420 5419 5418 5419 5422 5423 5422 5423 5423 5421 5419 5420 5421 5422 5426 5428 5429 5436 5443 5443 5451
5573 5571 5568 5565 5563 5561 5558 5555 5552 5548 5545 5542 5540 5537 5535 5532 5529 5526 5522 5518 5515 5512 5508 5506 5503 5500 5497 5494 5492 5489 5486 5483 5480 5478 5477 5474 5472 5470 5469 5467 5465 5462 5460 5458 5455 5453 5451 5449 5446 5443 5439 5436 5433 5431 5428 5425 5424 5422 5421 5418 5415 5413 5410 5408 5407 5407 5406 5407 5409 5411 5408 5408 5410 5409 5406 5405 5406 5407 5409 5411 5412 5415 5421 5425 5432
5564 5561 5558 5556 5554 5551 5548 5545 5542 5538 5535 5532 5529 5527 5524 5521 5517 5514 5511 5507 5504 5501 5498 5496 5493 5490 5488 5485 5483 5481 5477 5474 5471 5469 5468 5465 5463 5461 5459 5457 5454 5452 5450 5447 5445 5442 5440 5438 5436 5432 5429 5425 5422 5419 5416 5415 5414 5412 5411 5409 5406 5404 5400 5398 5396 5395 5394 5395 5397 5399 5396 5394 5396 5397 5394 5391 5391 5393 5395 5397 5397 5396 5401 5408 5415
5554 5551 5549 5546 5543 5541 5538 5535 5532 5529 5525 5522 5519 5516 5512 5509 5506 5503 5500 5497 5494 5491 5488 5486 5484 5481 5479 5477 5475 5472 5468 5465 5463 5461 5459 5456 5454 5451 5450 5447 5445 5442 5440 5437 5434 5431 5429 5426 5424 5421 5418 5414 5411 5407 5405 5404 5403 5402 5401 5399 5397 5394 5391 5389 5386 5384 5383 5383 5384 5386 5385 5382 5384 5385 5382 5378 5376 5380 5382 5383 5384 5382 5384 5393 5400
5544 5542 5539 5536 5533 5530 5528 5525 5522 5519 5515 5511 5508 5505 5501 5498 5495 5492 5490 5487 5484 5482 5480 5478 5475 5473 5470 5468 5466 5464 5460 5456 5453 5452 5449 5447 5444 5442 5440 5437 5435 5433 5430 5426 5423 5421 5417 5414 5412 5409 5407 5403 5399 5396 5394 5393 5391 5391 5390 5388 5387 5385 5382 5380 5377 5374 5374 5373 5372 5374 5374 5372 5372 5372 5371 5366 5363 5366 5370 5370 5370 5370 5373 5380 5386
5535 5532 5529 5526 5523 5520 5517 5515 5511 5508 5505 5501 5498 5494 5491 5488 5485 5483 5480 5478 5475 5473 5471 5469 5467 5465 5462 5459 5457 5455 5451 5447 5444 5442 5440 5437 5434 5432 5430 5428 5425 5422 5419 5416 5413 5410 5406 5402 5399 5397 5394 5391 5387 5384 5382 5380 5379 5379 5379 5377 5376 5375 5373 5371 5367 5365 5364 5363 5363 5364 5363 5362 5361 5361 5359 5355 5351 5353 5357 5358 5358 5358 5361 5368 5372
5525 5522 5519 5515 5512 5509 5506 5504 5501 5497 5494 5491 5487 5484 5481 5478 5476 5473 5471 5469 5467 5465 5463 5460 5458 5456 5453 5450 5449 5446 5442 5438 5435 5433 5430 5427 5424 5422 5420 5418 5415 5412 5408 5405 5402 5399 5395 5390 5387 5384 5382 5379 5375 5373 5370 5367 5367 5367 5367 5366 5365 5365 5364 5361 5357 5356 5355 5354 5354 5354 5353 5352 5351 5350 5348 5344 5341 5341 5344 5346 5346 5346 5349 5355 5358
5515 5511 5508 5505 5501 5499 5496 5492 5490 5486 5483 5481 5477 5475 5472 5469 5467 5465 5463 5461 5459 5456 5454 5452 5449 5447 5444 5442 5439 5437 5434 5430 5426 5424 5420 5417 5414 5412 5409 5407 5404 5401 5397 5394 5391 5387 5383 5380 5375 5372 5371 5367 5364 5361 5358 5356 5356 5356 5355 5355 5355 5355 5353 5350 5348 5348 5347 5346 5346 5345 5345 5343 5341 5340 5338 5335 5332 5331 5333 5336 5336 5335 5339 5343 5345
5504 5501 5497 5494 5491 5488 5485 5482 5479 5476 5473 5471 5468 5466 5463 5461 5459 5457 5455 5453 5451 5448 5446 5444 5442 5439 5436 5433 5430 5428 5425 5422 5418 5414 5411 5406 5403 5401 5398 5396 5393 5390 5387 5384 5381 5377 5373 5370 5366 5362 5359 5356 5353 5350 5348 5346 5345 5345 5344 5344 5345 5345 5342 5340 5340 5341 5340 5339 5338 5337 5336 5335 5333 5331 5328 5326 5324 5322 5324 5326 5326 5327 5330 5332 5333
5493 5490 5487 5484 5481 5478 5476 5473 5470 5467 5465 5462 5460 5458 5456 5453 5451 5449 5447 5445 5443 5440 5438 5436 5434 5431 5428 5425 5422 5418 5416 5413 5409 5405 5401 5397 5393 5390 5387 5385 5382 5379 5377 5373 5371 5368 5364 5361 5358 5354 5350 5347 5343 5341 5340 5337 5335 5335 5334 5333 5334 5334 5333 5332 5332 5332 5332 5331 5331 5329 5328 5327 5325 5322 5320 5317 5316 5314 5315 5316 5318 5319 5321 5323 5325
5482 5479 5477 5474 5472 5469 5467 5464 5461 5459 5457 5455 5453 5450 5448 5446 5444 5441 5439 5437 5435 5432 5430 5428 5426 5423 5420 5416 5413 5410 5407 5404 5401 5396 5392 5388 5384 5381 5377 5375 5371 5369 5367 5364 5360 5358 5355 5352 5349 5346 5341 5338 5335 5333 5332 5330 5327 5326 5326 5325 5324 5324 5323 5324 5325 5324 5323 5323 5322 5321 5320 5318 5316 5314 5311 5309 5308 5307 5307 5308 5310 5311 5311 5313 5316
5472 5470 5468 5465 5463 5461 5459 5456 5454 5452 5450 5448 5445 5443 5440 5438 5436 5433 5431 5429 5426 5424 5422 5419 5417 5415 5412 5408 5405 5401 5398 5395 5392 5388 5383 5379 5376 5372 5368 5365 5361 5358 5356 5354 5351 5348 5346 5343 5340 5337 5333 5330 5328 5326 5324 5323 5321 5319 5319 5318 5317 5316 5315 5315 5316 5316 5315 5314 5314 5313 5312 5309 5308 5306 5304 5302 5300 5299 5299 5300 5301 5302 5302 5303 5305
5463 5461 5459 5457 5456 5453 5451 5449 5447 5444 5442 5440 5438 5435 5433 5430 5428 5425 5423 5420 5418 5416 5413 5411 5409 5407 5404 5400 5397 5393 5390 5387 5383 5379 5375 5371 5368 5364 5360 5356 5352 5348 5345 5344 5341 5339 5337 5335 5332 5329 5325 5322 5320 5319 5317 5316 5314 5312 5312 5310 5309 5309 5307 5307 5307 5306 5306 5306 5305 5304 5303 5301 5299 5298 5296 5295 5293 5291 5291 5291 5292 5292 5293 5293 5294
5455 5453 5452 5450 5448 5446 5444 5442 5439 5437 5435 5433 5430 5428 5425 5422 5419 5417 5414 5412 5410 5408 5405 5402 5400 5398 5396 5393 5389 5385 5382 5378 5375 5371 5367 5363 5360 5357 5352 5348 5344 5339 5336 5334 5332 5329 5328 5326 5323 5320 5317 5315 5313 5312 5311 5309 5307 5305 5304 5302 5301 5301 5300 5299 5299 5298 5298 5297 5296 5295 5294 5292 5291 5290 5288 5287 5285 5283 5283 5283 5283 5283 5283 5283 5284
5448 5446 5444 5443 5441 5439 5436 5434 5432 5430 5428 5425 5423 5420 5417 5415 5412 5409 5406 5403 5401 5399 5397 5394 5391 5389 5387 5385 5382 5378 5374 5370 5367 5363 5359 5355 5353 5349 5345 5341 5336 5331 5327 5325 5322 5320 5319 5317 5314 5311 5309 5308 5307 5305 5304 5303 5301 5299 5297 5295 5294 5293 5292 5291 5290 5289 5289 5288 5287 5287 5286 5284 5283 5282 5280 5279 5277 5275 5274 5274 5274 5274 5273 5273 5274
5441 5439 5437 5436 5433 5431 5429 5427 5425 5423 5420 5418 5415 5412 5410 5407 5404 5401 5398 5395 5393 5391 5388 5386 5383 5380 5378 5376 5373 5370 5366 5362 5359 5355 5351 5348 5345 5341 5337 5333 5328 5323 5319 5316 5313 5311 5310 5308 5306 5304 5302 5301 5300 5298 5297 5296 5294 5293 5291 5289 5287 5286 5285 5284 5283 5282 5281 5280 5279 5279 5277 5275 5274 5273 5271 5271 5269 5267 5265 5265 5266 5265 5262 5261 5264
5434 5432 5430 5429 5427 5425 5423 5420 5418 5416 5413 5411 5408 5405 5402 5400 5397 5394 5391 5388 5386 5383 5380 5377 5375 5372 5370 5368 5365 5362 5358 5354 5351 5347 5343 5340 5337 5333 5329 5325 5321 5316 5312 5309 5306 5304 5302 5300 5298 5297 5296 5295 5294 5292 5290 5289 5288 5286 5284 5282 5280 5279 5277 5276 5276 5274 5273 5272 5271 5270 5268 5266 5265 5263 5261 5261 5260 5257 5256 5257 5258 5256 5253 5251 5253
5428 5426 5424 5422 5420 5418 5416 5414 5411 5409 5406 5404 5401 5398 5395 5393 5390 5387 5383 5381 5378 5375 5372 5370 5366 5364 5362 5359 5357 5354 5350 5346 5342 5339 5335 5332 5329 5325 5322 5317 5313 5309 5305 5302 5299 5297 5295 5294 5293 5292 5291 5290 5288 5286 5284 5282 5281 5279 5277 5276 5274 5272 5270 5268 5267 5266 5265 5264 5263 5262 5260 5258 5256 5254 5252 5251 5251 5248 5246 5246 5247 5246 5243 5240 5242
5421 5419 5417 5416 5414 5412 5409 5407 5404 5402 5399 5397 5394 5391 5388 5385 5383 5380 5376 5373 5371 5368 5365 5362 5359 5356 5354 5351 5348 5346 5343 5339 5335 5331 5328 5324 5320 5317 5312 5308 5304 5301 5298 5295 5292 5290 5289 5288 5287 5287 5286 5285 5283 5281 5279 5277 5275 5272 5270 5268 5266 5265 5262 5260 5259 5258 5256 5255 5254 5252 5251 5249 5246 5244 5242 5242 5240 5238 5236 5235 5235 5234 5232 5230 5230
5415 5413 5411 5409 5407 5405 5403 5400 5398 5395 5393 5390 5387 5384 5381 5378 5375 5372 5369 5366 5363 5360 5357 5355 5351 5348 5346 5343 5340 5337 5335 5331 5327 5323 5320 5316 5312 5308 5303 5299 5295 5292 5290 5287 5285 5284 5283 5283 5282 5281 5280 5278 5277 5275 5273 5271 5269 5267 5264 5261 5258 5257 5255 5253 5251 5250 5248 5246 5244 5242 5241 5239 5237 5235 5233 5232 5231 5229 5227 5226 5224 5223 5221 5219 5219
5408 5406 5405 5402 5400 5398 5396 5393 5391 5388 5386 5383 5380 5377 5374 5371 5367 5365 5362 5360 5357 5353 5350 5347 5344 5341 5338 5335 5332 5329 5325 5322 5319 5315 5311 5308 5304 5300 5295 5291 5288 5285 5282 5281 5279 5278 5278 5277 5276 5275 5274 5272 5271 5269 5267 5265 5263 5261 5258 5255 5251 5249 5247 5245 5243 5242 5240 5237 5235 5233 5231 5229 5228 5226 5225 5223 5222 5221 5219 5217 5215 5212 5210 5208 5207
5402 5400 5398 5395 5393 5391 5389 5386 5384 5381 5379 5376 5374 5371 5368 5365 5361 5357 5354 5352 5350 5347 5343 5340 5337 5333 5330 5326 5323 5320 5316 5313 5310 5307 5303 5300 5296 5292 5288 5284 5281 5278 5276 5275 5275 5274 5273 5272 5271 5269 5268 5266 5264 5263 5260 5258 5256 5254 5252 5249 5245 5241 5239 5237 5235 5233 5231 5229 5227 5225 5223 5221 5220 5219 5217 5216 5214 5213 5211 5208 5204 5201 5198 5197 5195
5395 5393 5390 5388 5386 5384 5381 5379 5376 5374 5372 5369 5367 5364 5361 5359 5355 5351 5347 5344 5341 5339 5336 5332 5328 5325 5322 5318 5314 5311 5308 5305 5302 5298 5295 5292 5289 5285 5281 5277 5274 5273 5272 5271 5270 5269 5268 5266 5265 5264 5262 5260 5259 5256 5254 5252 5249 5247 5244 5242 5238 5235 5232 5229 5227 5225 5223 5221 5219 5217 5216 5215 5213 5212 5211 5208 5206 5204 5201 5198 5194 5190 5187 5185 5184
5387 5385 5383 5380 5378 5376 5374 5371 5369 5367 5364 5362 5359 5357 5354 5351 5349 5346 5342 5338 5334 5330 5327 5324 5321 5317 5314 5310 5306 5303 5300 5297 5294 5290 5287 5284 5281 5278 5274 5271 5269 5268 5267 5266 5266 5264 5263 5261 5260 5258 5256 5254 5253 5250 5248 5245 5242 5240 5237 5234 5231 5229 5226 5223 5220 5218 5215 5213 5212 5211 5209 5208 5206 5205 5203 5201 5197 5194 5191 5187 5184 5180 5177 5175 5173
5380 5377 5375 5373 5370 5368 5366 5364 5361 5359 5356 5354 5352 5349 5346 5344 5341 5339 5336 5333 5329 5324 5320 5316 5312 5309 5306 5303 5299 5296 5292 5289 5286 5283 5280 5277 5274 5271 5268 5266 5265 5264 5263 5262 5260 5259 5258 5256 5255 5253 5251 5249 5247 5244 5242 5239 5236 5233 5230 5228 5225 5222 5219 5216 5213 5211 5209 5207 5206 5204 5203 5201 5199 5197 5195 5192 5189 5185 5181 5178 5175 5171 5168 5166 5164
5372 5369 5367 5365 5362 5360 5358 5356 5353 5351 5348 5346 5344 5341 5338 5336 5333 5331 5328 5325 5322 5318 5314 5309 5305 5301 5297 5294 5292 5289 5286 5283 5279 5276 5273 5271 5268 5266 5264 5262 5261 5259 5258 5257 5256 5254 5253 5251 5250 5248 5246 5243 5241 5238 5236 5233 5230 5227 5224 5221 5219 5216 5213 5210 5207 5205 5203 5201 5200 5198 5196 5194 5192 5189 5187 5184 5180 5176 5173 5170 5167 5164 5161 5159 5157
5363 5361 5359 5356 5354 5352 5350 5347 5344 5342 5340 5338 5335 5333 5330 5328 5325 5323 5320 5317 5314 5311 5307 5303 5299 5294 5290 5286 5284 5281 5279 5276 5273 5270 5267 5265 5263 5261 5260 5259 5257 5256 5254 5253 5251 5250 5248 5246 5245 5243 5240 5238 5236 5233 5230 5227 5224 5221 5218 5215 5212 5210 5207 5204 5202 5200 5198 5196 5194 5193 5190 5188 5185 5182 5179 5176 5172 5169 5166 5163 5160 5157 5155 5153 5151
5355 5353 5350 5348 5346 5344 5341 5338 5336 5333 5331 5329 5326 5324 5322 5319 5316 5314 5312 5309 5306 5303 5300 5296 5292 5288 5283 5280 5277 5274 5271 5269 5266 5264 5261 5259 5258 5257 5256 5254 5253 5252 5250 5249 5247 5245 5243 5241 5239 5237 5235 5233 5230 5227 5225 5222 5219 5216 5213 5210 5207 5204 5201 5199 5197 5195 5193 5191 5189 5187 5185 5182 5179 5176 5172 5168 5165 5162 5160 5157 5153 5151 5150 5147 5145
5346 5344 5341 5339 5337 5335 5332 5330 5327 5325 5322 5320 5318 5315 5313 5310 5308 5305 5303 5301 5298 5295 5292 5289 5285 5281 5278 5274 5271 5268 5265 5262 5260 5258 5255 5253 5253 5252 5251 5250 5248 5247 5245 5244 5242 5240 5238 5236 5235 5232 5230 5228 5225 5222 5220 5217 5214 5211 5208 5205 5202 5199 5196 5194 5192 5190 5188 5186 5184 5182 5180 5177 5173 5169 5165 5162 5159 5156 5154 5151 5148 5146 5144 5143 5141
5337 5334 5332 5330 5328 5326 5323 5321 5318 5316 5313 5311 5309 5307 5304 5302 5299 5297 5295 5293 5290 5287 5285 5282 5278 5274 5272 5268 5265 5263 5260 5256 5254 5253 5251 5249 5248 5247 5246 5245 5243 5242 5241 5239 5238 5236 5234 5232 5230 5228 5226 5223 5220 5217 5215 5212 5209 5206 5204 5201 5198 5195 5192 5190 5188 5185 5183 5181 5179 5177 5175 5172 5168 5164 5160 5156 5153 5151 5149 5146 5144 5141 5140 5138 5137
5327 5325 5323 5320 5318 5316 5314 5311 5309 5306 5304 5302 5300 5297 5295 5293 5291 5288 5286 5284 5282 5279 5277 5274 5271 5268 5265 5262 5260 5257 5255 5251 5249 5248 5247 5245 5244 5243 5242 5241 5239 5238 5237 5235 5233 5232 5230 5228 5226 5224 5221 5218 5216 5213 5210 5208 5205 5203 5200 5197 5195 5191 5188 5185 5183 5181 5179 5177 5175 5173 5170 5167 5164 5160 5156 5153 5150 5147 5144 5142 5140 5138 5136 5134 5133
5318 5315 5313 5310 5308 5306 5303 5301 5298 5296 5294 5292 5290 5288 5286 5283 5281 5279 5278 5276 5274 5271 5269 5266 5263 5261 5258 5256 5254 5251 5249 5247 5245 5243 5243 5242 5240 5239 5238 5237 5236 5234 5233 5231 5230 5228 5225 5223 5221 5219 5217 5214 5211 5209 5206 5204 5202 5199 5197 5194 5191 5188 5185 5181 5179 5177 5175 5172 5170 5168 5166 5163 5160 5156 5153 5150 5147 5144 5142 5139 5136 5134 5133 5131 5130
5307 5305 5302 5299 5297 5295 5293 5290 5288 5286 5284 5282 5280 5278 5276 5274 5272 5270 5269 5267 5265 5263 5261 5259 5256 5253 5251 5250 5248 5245 5243 5241 5240 5239 5238 5237 5236 5235 5234 5232 5231 5230 5229 5227 5226 5224 5221 5219 5217 5214 5212 5210 5207 5205 5202 5200 5198 5196 5193 5190 5188 5185 5182 5178 5175 5173 5170 5168 5166 5164 5161 5159 5156 5153 5150 5148 5145 5142 5139 5136 5133 5131 5129 5128 5127
5296 5294 5291 5288 5286 5284 5282 5279 5277 5275 5273 5272 5270 5268 5266 5264 5263 5261 5260 5258 5257 5255 5253 5251 5249 5246 5244 5243 5241 5239 5238 5236 5236 5235 5234 5233 5232 5231 5229 5228 5227 5226 5225 5223 5221 5219 5217 5215 5212 5210 5207 5205 5203 5200 5198 5196 5194 5191 5189 5186 5184 5181 5179 5176 5172 5170 5167 5165 5162 5160 5158 5155 5152 5150 5147 5145 5142 5139 5136 5133 5130 5128 5126 5125 5124
5286 5283 5280 5278 5275 5273 5270 5268 5266 5264 5262 5261 5259 5257 5255 5254 5253 5252 5250 5249 5248 5246 5245 5243 5241 5239 5237 5236 5234 5233 5232 5232 5231 5230 5230 5229 5228 5227 5226 5224 5223 5222 5220 5219 5217 5215 5213 5210 5208 5206 5203 5200 5198 5196 5193 5191 5189 5187 5184 5182 5180 5177 5175 5172 5169 5167 5164 5161 5159 5157 5154 5152 5149 5147 5145 5142 5139 5136 5133 5130 5128 5126 5124 5122 5121
5274 5272 5269 5266 5264 5261 5259 5257 5254 5253 5251 5249 5248 5246 5245 5243 5243 5242 5241 5240 5239 5237 5236 5235 5233 5232 5231 5229 5228 5227 5227 5227 5226 5226 5225 5224 5224 5223 5222 5221 5219 5217 5216 5214 5212 5210 5208 5206 5204 5202 5199 5196 5194 5191 5189 5187 5185 5183 5180 5178 5175 5173 5171 5168 5166 5163 5160 5158 5155 5153 5151 5149 5146 5144 5142 5139 5137 5134 5131 5128 5126 5123 5122 5120 5118
5263 5260 5257 5254 5252 5249 5247 5244 5242 5240 5239 5237 5236 5235 5234 5233 5232 5232 5231 5230 5229 5228 5228 5227 5226 5225 5224 5223 5222 5222 5222 5222 5221 5221 5221 5220 5219 5219 5218 5217 5215 5213 5211 5210 5208 5206 5204 5202 5200 5198 5195 5193 5190 5188 5185 5183 5181 5179 5176 5174 5172 5169 5167 5164 5162 5160 5157 5154 5152 5150 5148 5146 5143 5141 5139 5137 5134 5131 5129 5126 5123 5121 5119 5117 5116
5250 5247 5244 5241 5238 5236 5233 5231 5229 5227 5226 5224 5224 5223 5222 5221 5221 5221 5220 5220 5220 5219 5219 5218 5218 5217 5217 5216 5216 5216 5217 5217 5217 5216 5216 5216 5215 5214 5214 5212 5211 5209 5207 5205 5203 5202 5200 5198 5195 5193 5191 5189 5186 5184 5182 5180 5177 5175 5173 5171 5168 5166 5164 5161 5159 5157 5154 5152 5150 5147 5145 5143 5141 5138 5136 5134 5132 5129 5127 5124 5122 5119 5116 5114 5113
5237 5233 5230 5227 5224 5221 5219 5216 5215 5213 5212 5211 5211 5211 5210 5210 5210 5210 5210 5210 5210 5210 5210 5210 5210 5210 5210 5210 5211 5211 5212 5212 5212 5212 5211 5211 5211 5210 5209 5208 5207 5205 5203 5201 5199 5197 5195 5193 5191 5189 5187 5185 5183 5180 5178 5176 5174 5172 5170 5167 5165 5163 5160 5158 5156 5154 5152 5150 5147 5145 5142 5140 5138 5136 5133 5131 5129 5127 5125 5123 5120 5117 5115 5112 5111
5222 5219 5215 5212 5209 5206 5204 5202 5200 5199 5198 5198 5198 5198 5199 5199 5199 5199 5200 5200 5201 5201 5201 5202 5203 5203 5204 5205 5206 5206 5207 5207 5207 5207 5207 5207 5207 5206 5205 5204 5203 5201 5199 5197 5195 5193 5191 5189 5187 5184 5182 5180 5179 5176 5174 5172 5170 5169 5167 5164 5162 5160 5158 5155 5153 5151 5149 5147 5145 5143 5140 5138 5135 5133 5131 5129 5127 5125 5123 5121 5119 5116 5113 5111 5109
5207 5204 5200 5197 5194 5191 5189 5187 5186 5185 5184 5185 5186 5186 5187 5188 5188 5189 5190 5191 5192 5192 5194 5195 5196 5197 5198 5199 5201 5202 5202 5203 5203 5203 5203 5203 5203 5202 5201 5200 5199 5197 5195 5193 5191 5189 5187 5185 5182 5180 5178 5176 5174 5172 5170 5168 5166 5165 5163 5161 5159 5157 5155 5153 5151 5149 5146 5145 5143 5141 5138 5136 5134 5131 5129 5127 5125 5123 5121 5119 5117 5115 5112 5110 5107